Location: Aalen
(48.8330°N, 10.1000°E)
Time: 22:40:24
(UTC+02:00)

Transit 2A - Pass Details

Date: 03 August 2021
Orbit: 594 x 964 km, 66.7° (Epoch: 27 September)

Event Time Altitude Azimuth Distance (km) Brightness Sun altitude
Rises 11:18:22 0° 310° (NW) 3,024 8.7 49.3°
Reaches altitude 10° 11:23:35 10° 358° (N) 2,227 8.2 50.0°
Maximum altitude 11:23:52 10° 1° (N) 2,231 8.3 50.0°
Drops below altitude 10° 11:24:11 10° 5° (N) 2,242 8.3 50.1°
Sets 11:29:44 0° 51° (NE) 3,305 9.4 50.7°
